Flag for Turkmenistan Weather past 2 weeks in Ashgabat, Turkmenistan

Now
88 °F

Clear.


Feels Like: 88 °F
Forecast: 88 / 108 °F
Wind: 10 mph from Northwest

Location: Ashgabat

Current Time: Jul 2, 2015 at 4:51:59 AM

Latest Report: Jul 2, 2015 at 4:30 AM


Visibility: 3 mi

Pressure: 29.83 "Hg

Humidity: 43%

Dew point: 63 °F

Location of AshgabatLocation

Historic Weather in Ashgabat — Graph

°F

Ashgabat temperature yesterday

Maximum temperature yesterday: 113 °F (at 5:00 PM)
Minimum temperature yesterday: 84 °F (at 6:00 AM)
Average temperature yesterday: 103 °F

Past Weeks' High & Low Weather Summary

 TemperatureHumidityPressure
High113 °F (Jul 1, 5:00 PM)38% (Jun 18, 5:00 AM)29.83 "Hg (Jun 18, 5:00 AM)
Low70 °F (Jun 17, 5:00 AM)6% (Jun 21, 3:00 PM)29.47 "Hg (Jun 26, 5:00 PM)
Average96 °F14%29.65 "Hg
* Reported Jun 17 3:00 AM — Jul 2 3:30 AM, Ashgabat, Weather by CustomWeather, © 2015

Note: Actual official high and low records may vary slightly from our data, if they occured in-between our weather recording intervals... More about our weather records

Advertising

Ashgabat weather history for previous 24 hours

 ConditionsComfort  
Time TempWeatherWind HumidityBarometerVisibility
3:30 AM
Thu, Jul 2
90 °FClear.17 mph36%29.83 "Hg3 mi
3:00 AM91 °FClear.15 mph30%29.80 "Hg3 mi
2:00 AM91 °FClear.3 mph15%29.80 "Hg3 mi
1:30 AM91 °FClear.6 mph15%29.77 "Hg2 mi
1:00 AM91 °FClear.6 mph16%29.80 "HgN/A
12:00 AM93 °FClear.1 mph14%29.80 "Hg5 mi
11:00 PM
Wed, Jul 1
97 °FClear.1 mph13%29.80 "Hg5 mi
10:00 PM97 °FClear.3 mph13%29.77 "Hg2 mi
9:30 PM97 °FSunny.3 mph13%29.77 "Hg1 mi
9:00 PM102 °FSunny.No wind10%29.77 "HgN/A
8:30 PM104 °FSunny.No wind9%29.77 "HgN/A
8:00 PM106 °FSunny.3 mph9%29.74 "HgN/A
7:30 PM109 °FSunny.3 mph7%29.74 "HgN/A
7:00 PM111 °FSunny.6 mph6%29.74 "HgN/A
6:30 PM111 °FSunny.6 mph6%29.74 "HgN/A
6:00 PM113 °FSunny.3 mph6%29.74 "HgN/A
5:30 PM111 °FSunny.8 mph6%29.74 "HgN/A
5:00 PM113 °FSunny.6 mph6%29.74 "HgN/A
4:30 PM111 °FSunny.6 mph6%29.77 "HgN/A
4:00 PM111 °FSunny.10 mph6%29.77 "HgN/A
3:30 PM111 °FSunny.8 mph6%29.77 "HgN/A
3:00 PM111 °FSunny.10 mph6%29.77 "HgN/A
2:30 PM111 °FSunny.10 mph6%29.77 "HgN/A
2:00 PM111 °FSunny.8 mph7%29.77 "HgN/A
1:30 PM109 °FSunny.10 mph8%29.80 "HgN/A
1:00 PM111 °FSunny.8 mph7%29.80 "HgN/A
12:30 PM109 °FSunny.10 mph7%29.80 "HgN/A
12:00 PM109 °FSunny.10 mph7%29.80 "HgN/A
11:30 AM108 °FSunny.10 mph8%29.80 "HgN/A
11:00 AM106 °FSunny.6 mph10%29.80 "HgN/A
10:30 AM106 °FSunny.6 mph10%29.80 "HgN/A
10:00 AM102 °FSunny.6 mph11%29.80 "HgN/A
9:00 AM102 °FSunny.3 mph12%29.80 "HgN/A
8:00 AM95 °FSunny.3 mph18%29.77 "HgN/A
7:00 AM86 °FSunny.3 mph31%29.77 "Hg6 mi
6:00 AM84 °FClear.3 mph29%29.74 "Hg4 mi
5:00 AM88 °FClear.1 mph21%29.74 "Hg5 mi
4:00 AM86 °FClear.No wind24%29.74 "Hg5 mi
Weather by CustomWeather, © 2015

See weather overviewHow to use our weather pages